QZS-3 (MICHIBIKI-3)

Last updated on June 27, 2019, 3:44 a.m. UTC

1 42917U 17048A   19177.44925147 -.00000341  00000-0  00000+0 0  9992
2 42917   0.0483 171.4049 0001870 304.5658  86.9790  1.00278185  6820
UTC
Height (km)
Latitude
Longitude
Inclination
Orbital Period
UTC large
Height (km)
Speed (km/s)
/
Latitude / Longitude
Inclination (degrees)
Orbital Period (minutes)
Azimuth
Elevation
Range (km)
Doppler Factor
iOS Compass Heading
iOS Angle

Next 30 passes for location: Hong Kong

Rise time Rise Azimuth (degrees) Set time Set Azimuth (degrees) Duration Max altitude (degrees)

No matching passes for this satellites